Location: Wildcat Hills Observatory
(41.6350°N, 103.6812°W)
Time: 09:22:41
(UTC-06:00)

Daily predictions for brighter satellites

Satellite Brightness Start Highest point End
(mag) Time Altitude Azimuth Time Altitude Azimuth Time Altitude Azimuth
CZ-2C R/B 3.8 19:00:24 10° S 19:05:08 45° W 19:09:46 10° NNW
Meteor 2-5 Rocket 4.4 19:02:03 10° NNW 19:07:36 61° W 19:13:02 10° S
NOAA 12 4.3 19:02:45 10° SE 19:07:47 49° ENE 19:12:52 10° N
SAR-Lupe-1 4.2 19:07:10 10° SSE 19:10:36 50° ENE 19:14:04 10° N
Okean 3 Rocket 3.7 19:08:55 10° N 19:13:30 87° W 19:18:02 10° S
SJ-6B 3.0 19:09:37 10° SSE 19:13:30 53° ENE 19:17:29 10° N
FREGAT/IRIS 3.3 19:11:05 10° SE 19:13:56 35° ENE 19:16:49 10° N
Meteor 1-29 4.5 19:11:50 10° NE 19:14:17 18° E 19:16:43 10° SE
Cosmos 2333 Rocket 4.0 19:12:18 10° WSW 19:17:33 35° WNW 19:22:50 10° N
Helios 1A 3.9 19:14:08 10° SE 19:17:47 30° ENE 19:21:28 10° N
Cosmos 1674 4.5 19:17:07 10° NE 19:19:22 15° ENE 19:21:24 11° ESE
In-Cosmos 22 4.4 19:14:31 10° N 19:20:10 51° ENE 19:25:44 10° SSE
Resurs 01 Rocket 2.2 19:16:20 10° SE 19:20:25 37° ENE 19:24:31 10° N
Cosmos 1758 3.8 19:22:13 10° SSE 19:26:03 40° E 19:29:55 10° NNE
Abrixas 3.6 19:25:08 10° SSW 19:27:45 27° SE 19:29:32 16° E
Cosmos 1484 Rocket 3.8 19:24:17 10° S 19:28:01 51° W 19:31:51 10° NNW
Cosmos 1452 Rocket 3.5 19:25:48 10° NNW 19:31:03 65° ENE 19:36:15 10° SSE
Cosmos 1346 4.1 19:30:25 10° NNE 19:32:58 25° ENE 19:34:42 15° ESE
NOSS 3-2 (A) 3.7 19:27:40 10° SW 19:33:44 77° NW 19:40:24 10° NNE
TELKOM 3 4.4 19:33:43 10° NW 19:36:20 29° NNE 19:37:25 19° ENE
ATLAS 5 CENTAUR R/B 1.8 19:32:37 10° SSW 19:37:23 84° SE 19:42:35 10° NE
Cosmos 2237 Rocket 4.3 19:33:15 10° WSW 19:38:10 29° NW 19:43:06 10° N
COSMO-SKYMED 1 4.0 19:35:24 10° N 19:39:30 41° WNW 19:43:34 10° SW
Nadezhda 4 Rocket 4.2 19:38:18 10° N 19:44:25 50° ENE 19:50:24 10° SSE
GP-B 4.4 19:42:26 10° NE 19:45:37 19° E 19:45:48 19° E
Meteor 2-12 Rocket 4.4 19:42:21 10° S 19:48:25 66° E 19:54:31 10° NNE
Cosmos 468 4.5 19:43:25 10° S 19:48:35 63° ESE 19:53:46 10° NNE
Meteor 1-21 Rocket 4.1 19:44:23 10° N 19:49:56 67° ENE 19:55:26 10° SSE
ASTEX 1 3.9 19:46:30 10° NNE 19:51:03 37° E 19:55:33 10° SSE
Cosmos 1420 Rocket 4.1 19:46:53 10° NNW 19:52:07 56° ENE 19:56:54 12° SE
Cosmos 1092 Rocket 4.3 19:46:32 10° N 19:52:24 42° ENE 19:58:11 10° SE
Cosmos 1544 3.1 19:50:17 10° S 19:53:57 57° E 19:57:38 10° NNE
Helios 1B rocket 2.3 19:50:08 10° NNE 19:54:15 73° ESE 19:58:21 10° S
Cosmos 1766 Rocket 3.9 19:54:29 10° NNW 19:58:50 66° W 20:03:07 10° S
SL-16 R/B 3.5 19:53:31 10° SW 19:58:54 43° WNW 20:04:19 10° NNE
CZ-2D R/B 3.7 20:00:07 28° ESE 20:01:34 40° ENE 20:05:15 10° N
METEOR-M 4.3 19:56:42 10° S 20:02:02 74° WSW 20:07:25 10° NNW
CENTAUR R/B 2.8 19:59:31 10° S 20:05:03 41° ESE 20:11:13 10° NE
OAO 3 Rocket 4.1 20:01:30 10° WSW 20:05:51 36° S 20:07:53 25° SE
Spot 2 Rocket 3.7 20:02:57 10° S 20:07:58 71° WSW 20:13:01 10° NNW
Cosmos 1634 Rocket 4.3 20:02:24 10° SSE 20:08:10 41° E 20:13:56 10° NNE
Elektron 1 4.2 20:08:11 10° SSW 20:10:33 42° SSE 20:10:33 42° SSE
Cosmos 1048 Rocket 3.9 20:06:06 10° S 20:11:20 66° ESE 20:16:33 10° NNE
Cosmos-2242 3.4 20:07:22 10° SSW 20:11:42 67° W 20:16:05 10° N
Cosmos 1269 Rocket 3.9 20:06:46 10° SSW 20:12:02 79° ESE 20:17:20 10° NNE
NOSS 3-2 (C) 4.2 20:06:55 10° SW 20:12:54 54° NW 20:19:29 10° NNE
H-2A R/B 2.7 20:14:25 40° SE 20:15:34 59° ENE 20:19:23 10° N
FENGYUN 3A 3.5 20:10:31 10° SSE 20:15:52 76° ENE 20:21:17 10° N
ISS -3.1 20:14:01 10° SW 20:16:49 51° S 20:16:49 51° S
Cosmos 1805 4.4 20:13:41 10° SSW 20:17:28 46° WNW 20:21:17 10° N
Envisat 4.2 20:19:33 24° NE 20:19:33 24° NE 20:23:03 10° NNE
Cosmos 1953 3.5 20:15:27 10° SSW 20:19:15 43° WNW 20:23:05 10° N
Cosmos 2151 3.7 20:16:03 10° N 20:19:18 34° NE 20:19:18 34° NE
Gbstr 26 Del rocket 3.4 20:20:28 10° SSW 20:24:47 50° SE 20:25:35 45° ESE
ALOS 2.2 20:20:49 14° SSE 20:24:54 84° WSW 20:29:36 10° NNW
Cosmos 1174 4.3 20:20:20 10° S 20:24:32 45° SE 20:24:32 45° SE
Cosmos 1842 Rocket 3.5 20:27:24 10° S 20:31:44 85° W 20:36:06 10° N
Cosmos 1500 Rocket 3.5 20:27:31 10° N 20:31:58 84° W 20:34:12 29° S
GPS 2-04 Rocket1 4.2 20:30:51 10° SW 20:32:46 23° SSW 20:32:46 23° SSW
Cosmos 158 Rocket 3.7 20:31:12 10° S 20:36:01 65° ESE 20:40:51 10° NNE
Cosmos 1943 Rocket 3.0 20:34:49 10° N 20:39:39 33° NE 20:39:39 33° NE
Cosmos 2369 Rocket 2.1 20:34:31 10° NNW 20:40:12 73° ENE 20:41:35 51° SE
Cosmos 1943 3.0 20:35:22 10° SSW 20:40:58 73° ESE 20:46:35 10° NNE
Cosmos 1470 3.1 20:37:08 10° SSW 20:40:58 64° W 20:44:51 10° N
USA 215 3.4 20:37:15 10° NE 20:43:47 73° NW 20:50:16 10° WSW
Cosmos 1733 3.3 20:43:41 71° WSW 20:43:53 73° W 20:47:46 10° N
Cosmos 2263 4.2 20:41:43 10° NNW 20:47:28 61° ENE 20:47:58 58° E
CZ-4B DEB 4.4 20:47:41 32° WSW 20:48:06 33° W 20:51:07 10° NNW
SL-8 R/B 3.7 20:45:03 10° WSW 20:49:50 76° NNW 20:50:17 69° NNE
SeaSat 1 3.6 20:47:46 10° NNE 20:55:12 29° SSW 20:57:37 10° SSW
Cosmos 1627 Rocket 4.3 20:47:48 10° N 20:54:02 81° E 20:55:58 47° SSE
ERS-1 Rocket 3.4 20:55:23 48° NNE 20:55:23 48° NNE 20:59:22 10° N
Cosmos 1674 4.1 20:51:34 10° NNW 20:55:11 37° W 20:56:24 29° SW
Resurs 01 Rocket 4.1 20:53:39 10° SW 20:56:59 21° W 21:00:21 10° NW
Cosmos 1110 Rocket 4.1 20:57:49 10° NNW 21:02:36 67° NNE 21:02:36 67° NNE
Meteor 1-16 Rocket 4.3 21:18:51 68° WNW 21:18:51 68° WNW 21:23:56 10° N
Meteor 1-11 4.4 21:16:35 10° NNW 21:22:22 71° W 21:22:26 71° WSW
ATLAS 5 CENTAUR R/B 4.4 21:19:19 10° W 21:22:50 19° NW 21:26:33 10° N
GP-B 4.4 21:18:58 10° NNW 21:23:03 37° W 21:23:17 37° W
Cosmos 2279 Rocket 4.0 21:30:59 74° NW 21:30:59 74° NW 21:36:53 10° N
Cosmos 1655 Rocket 4.5 21:34:25 10° NNW 21:40:28 55° W 21:40:56 54° WSW
CENTAUR R/B 3.6 21:49:51 10° WSW 21:55:40 41° NW 22:02:13 10° NNE
Cosmos 1943 Rocket 4.1 22:18:32 10° NW 22:21:11 25° WNW 22:21:11 25° WNW
